Regional Weather Roundup
Issued by NWS

Home | Current Version | Previous Version | Graphics & Text | Print | Product List | Glossary On
Versions: 1 2 3 4 5 6 7 8 9 10 11 12 13 14 15 16 17 18 19 20 21 22 23 24 25 26 27 28 29 30 31 32 33 34 35 36 37 38 39 40 41 42 43 44 45 46 47 48 49 50
873
ASUS43 KOAX 270210
RWRNE

WEATHER ROUNDUP FOR NEBRASKA
NATIONAL WEATHER SERVICE OMAHA NE
900 PM CDT FRI MAY 26 2017

NOTES: SATELLITE DATA IS BEING USED TO AUGMENT CLOUD COVER ABOVE
       12000 FEET.
       "FAIR" INDICATES FEW OR NO CLOUDS BELOW 12,000 FEET WITH NO
       SIGNIFICANT WEATHER AND/OR OBSTRUCTIONS TO VISIBILITY.

  * THESE STATIONS DO NOT REPORT WEATHER SUCH AS RAIN...SNOW OR FOG.

NEZ001>004-019>022-054>056-270300-
NEBRASKA PANHANDLE

CITY           SKY/WX    TMP DP  RH WIND       PRES   REMARKS
SCOTTSBLUFF    RAIN      53  50  89 N14       29.97R FOG
ALLIANCE       LGT RAIN  53  50  89 N23G29    29.91R
CHADRON        LGT RAIN  52  46  80 CALM      29.98R
GORDON         RAIN      55  50  85 N6        29.97R
KIMBALL        TSTM      55  47  75 NW23G38   29.95R
SIDNEY         MOCLDY    58  48  69 E17G26    29.82S
$$

NEZ057>060-069>072-079>082-270300-
SOUTHWEST NEBRASKA

CITY           SKY/WX    TMP DP  RH WIND       PRES   REMARKS
NORTH PLATTE   CLOUDY    65  52  62 E7        29.87S
IMPERIAL       CLOUDY    60  51  72 SE15G28   29.79F
LEXINGTON      CLOUDY    65  52  61 NE6       29.88R
MCCOOK         CLOUDY    68  52  56 CALM      29.89R
OGALLALA       CLOUDY    66  50  56 E10       29.85R
$$

NEZ005>010-023>029-035>040-094-270300-
NORTH CENTRAL NEBRASKA

CITY           SKY/WX    TMP DP  RH WIND       PRES   REMARKS
VALENTINE      CLOUDY    66  40  38 NE6       29.90F
AINSWORTH      CLOUDY    64  46  51 E6        29.91F
BROKEN BOW     CLOUDY    66  47  50 E7        29.89R
O`NEILL        CLEAR     63  44  50 NW6       29.91R
ORD            CLOUDY    65  45  48 NE7       29.87S
THEDFORD       CLOUDY    65  46  50 E6        29.91S
$$

NEZ041-046>049-061>064-073>077-083>087-270300-
SOUTH CENTRAL NEBRASKA

CITY           SKY/WX    TMP DP  RH WIND       PRES   REMARKS
GRAND ISLAND   PTCLDY    68  50  52 N6        29.87R
AURORA         HAZE      69  47  45 NE7       29.86S VSB 3/4
HASTINGS       CLOUDY    70  48  45 E5        29.86S
HEBRON         CLEAR     72  50  46 E5        29.83S
HOLDREGE       CLOUDY    68  47  45 E7        29.86R
KEARNEY *      CLOUDY    66  48  52 E8        29.86S
YORK           PTCLDY    68  48  49 NE8       29.85S
$$

NEZ011>018-030>034-042>045-270300-
NORTHEAST NEBRASKA

CITY           SKY/WX    TMP DP  RH WIND       PRES   REMARKS
NORFOLK        CLEAR     64  45  49 N5        29.86R
ALBION         CLEAR     65  45  48 N6        29.88R
BLAIR          CLEAR     72  50  45 NE3       29.84R
FREMONT        CLEAR     74  44  34 CALM      29.86R
TEKAMAH        CLEAR     69  50  50 N8        29.84R
WAYNE          CLEAR     65  45  49 N6        29.88R
$$

NEZ050>053-065>068-078-088>093-270300-
SOUTHEAST NEBRASKA

CITY           SKY/WX    TMP DP  RH WIND       PRES   REMARKS
LINCOLN        CLEAR     70  50  49 NE6       29.84R
OMAHA EPPLEY   PTCLDY    72  51  47 CALM      29.83R
BEATRICE       CLEAR     73  49  42 E6        29.83S
FALLS CITY     CLEAR     73  56  54 NW5       29.80R
NEBRASKA CITY  CLEAR     72  45  36 N6        29.84R
PLATTSMOUTH    CLEAR     75  47  37 CALM      29.84S
$$

NEZ044-045-051>053-067-270300-
OMAHA AREA

CITY           SKY/WX    TMP DP  RH WIND       PRES   REMARKS
OMAHA EPPLEY   PTCLDY    72  51  47 CALM      29.83R
BLAIR          CLEAR     72  50  45 NE3       29.84R
FREMONT        CLEAR     74  44  34 CALM      29.86R
MILLARD        CLEAR     71  54  54 CALM      29.84R
OFFUTT AFB     CLEAR     65  56  74 N5        29.83R
PLATTSMOUTH    CLEAR     75  47  37 CALM      29.84S
WAHOO          FAIR      73  48  40 NE3       29.84S
$$




USA.gov is the U.S. government's official web portal to all federal, state and local government web resources and services.